Flag Weather past 2 weeks in Flagstaff, Arizona, U.S.A.

Now
39 °F

Clear.


Feels Like: 39 °F
Forecast: 29 / 64 °F
Wind: No wind

Location: Flagstaff Pulliam Airport

Current Time: Nov 27, 2014 at 8:40:02 PM

Latest Report: Nov 27, 2014 at 7:57 PM


Visibility: 10 mi

Pressure: 30.34 "Hg

Humidity: 39%

Dew point: 16 °F

Location of FlagstaffLocation

Historic Weather in Flagstaff — Graph

°F

Flagstaff temperature yesterday

Maximum temperature yesterday: 61 °F (at 1:57 PM)
Minimum temperature yesterday: 22 °F (at 4:57 AM)
Average temperature yesterday: 38 °F

Past Weeks' High & Low Weather Summary

 TemperatureHumidityPressure
High66 °F (Nov 27, 2:57 PM)93% (Nov 13, 6:57 AM)30.51 "Hg (Nov 13, 6:57 AM)
Low12 °F (Nov 18, 5:57 AM)7% (Nov 25, 10:57 AM)29.81 "Hg (Nov 16, 12:57 AM)
Average36 °F46%30.14 "Hg
* Reported Nov 12 6:57 PM — Nov 27 6:57 PM, Flagstaff, Weather by CustomWeather, © 2014

Note: Actual official high and low records may vary slightly from our data, if they occured in-between our weather recording intervals... More about our weather records

Advertising

Flagstaff weather history for previous 24 hours

 ConditionsComfort  
Time TempWeatherWind HumidityBarometerVisibility
6:57 PM
Nov 27
40 °FClear.No wind38%30.37 "Hg10 mi
5:57 PM47 °FClear.No wind32%30.32 "Hg10 mi
4:57 PM59 °FSunny.No wind18%30.26 "Hg10 mi
3:57 PM64 °FSunny.5 mph13%30.24 "Hg10 mi
2:57 PM66 °FSunny.No wind12%30.24 "Hg10 mi
1:57 PM63 °FSunny.3 mph13%30.27 "Hg10 mi
12:57 PM61 °FSunny.7 mph15%30.30 "Hg10 mi
11:57 AM58 °FSunny.7 mph18%30.34 "Hg10 mi
10:57 AM55 °FSunny.7 mph21%30.39 "Hg10 mi
9:57 AM50 °FSunny.9 mph27%30.43 "Hg10 mi
8:57 AM44 °FSunny.3 mph37%30.44 "Hg10 mi
7:57 AM26 °FSunny.No wind63%30.51 "Hg10 mi
6:57 AM22 °FClear.No wind66%30.48 "Hg10 mi
5:57 AM24 °FClear.No wind60%30.44 "Hg10 mi
4:57 AM25 °FClear.No wind58%30.37 "Hg10 mi
3:57 AM23 °FClear.3 mph63%30.36 "Hg10 mi
2:57 AM24 °FClear.3 mph62%30.35 "Hg10 mi
1:57 AM25 °FClear.6 mph58%30.36 "Hg10 mi
12:57 AM25 °FClear.No wind58%30.36 "Hg10 mi
11:57 PM
Nov 26
25 °FClear.No wind60%30.37 "Hg10 mi
10:57 PM24 °FClear.3 mph60%30.39 "Hg10 mi
9:57 PM26 °FClear.3 mph57%30.40 "Hg10 mi
8:57 PM27 °FClear.No wind53%30.44 "Hg10 mi
Weather by CustomWeather, © 2014

See weather overviewHow to use our weather pages